EW1268 Weather Reports


Display with metric or nautical units.
time (UTC)temp
F
wind
direction
speed
MPH
gust
MPH
rain 1hr
in
rain 24hr
in
rain mn
in
humidity
%
barometer
mb
20260506073507 76 188 4.0 12.0 0.00 0.00 0.00 92 1008.9
20260506073024 76 166 4.0 9.0 0.00 0.00 0.00 92 1008.8
20260506072509 76 165 4.0 10.0 0.00 0.00 0.00 92 1008.9
20260506072016 76 183 2.0 10.0 0.00 0.00 0.00 92 1008.9
20260506071527 76 194 2.0 9.0 0.00 0.00 0.00 92 1008.9
20260506071004 76 157 4.0 9.0 0.00 0.00 0.00 92 1008.9
20260506070510 76 194 3.0 7.0 0.00 0.00 0.00 92 1009.1
20260506062510 76 265 3.0 7.0 0.00 0.00 0.00 92 1009.3
20260506062013 76 173 3.0 6.0 0.00 0.00 0.00 92 1009.4
20260506061523 76 254 2.0 9.0 0.00 0.00 0.00 92 1009.5
20260506061010 76 168 2.0 9.0 0.00 0.00 0.00 92 1009.5
20260506060509 76 142 4.0 8.0 0.00 0.00 0.00 92 1009.5
20260506051008 76 163 2.0 9.0 0.00 0.00 0.00 91 1009.3
20260506050510 76 170 3.0 9.0 0.00 0.00 0.00 91 1009.3
20260506045010 76 238 2.0 9.0 0.00 0.00 0.00 91 1009.3
20260506044537 76 192 2.0 9.0 0.00 0.00 0.00 91 1009.3
20260506044008 76 159 3.0 9.0 0.00 0.00 0.00 91 1009.3
20260506043513 76 173 2.0 9.0 0.00 0.00 0.00 91 1009.4
20260506043014 77 169 2.0 9.0 0.00 0.00 0.00 90 1009.3
20260506042512 77 164 2.0 8.0 0.00 0.00 0.00 90 1009.3
20260506042011 77 188 3.0 7.0 0.00 0.00 0.00 90 1009.2
20260506041522 77 171 1.0 8.0 0.00 0.00 0.00 90 1009.2
20260506041013 77 211 4.0 9.0 0.00 0.00 0.00 90 1009.1
20260506040514 77 207 4.0 9.0 0.00 0.00 0.00 89 1009.1
20260506040028 77 143 5.0 11.0 0.00 0.00 0.00 89 1009.1
20260506035510 77 168 5.0 11.0 0.00 0.00 0.00 89 1009.2
20260506035007 77 182 3.0 8.0 0.00 0.00 0.00 89 1009.2
20260506034520 77 148 2.0 11.0 0.00 0.00 0.00 89 1009.1
20260506034007 77 173 3.0 11.0 0.00 0.00 0.00 89 1008.9
20260506033514 77 153 4.0 11.0 0.00 0.00 0.00 89 1008.8
20260506033027 77 202 4.0 11.0 0.00 0.00 0.00 89 1008.7
20260506032510 77 218 2.0 11.0 0.00 0.00 0.00 89 1008.6
20260506032012 77 161 3.0 11.0 0.00 0.00 0.00 89 1008.5
20260506031518 77 187 5.0 12.0 0.00 0.00 0.00 89 1008.5
20260506031008 77 198 4.0 12.0 0.00 0.00 0.00 89 1008.4
20260506030508 77 93 3.0 11.0 0.00 0.00 0.00 89 1008.5
20260506030021 77 178 4.0 11.0 0.00 0.00 0.00 88 1008.6
20260506025511 77 169 4.0 13.0 0.00 0.00 0.00 88 1008.6
20260506025010 77 163 6.0 14.0 0.00 0.00 0.00 88 1008.5
20260506024532 78 213 6.0 14.0 0.00 0.00 0.00 88 1008.4
20260506024006 78 189 6.0 14.0 0.00 0.00 0.00 88 1008.3
20260506023510 78 205 4.0 9.0 0.00 0.00 0.00 88 1008.2
20260506023014 78 187 4.0 11.0 0.00 0.00 0.00 88 1008.2
20260506022513 78 189 5.0 11.0 0.00 0.00 0.00 88 1008.1
20260506022011 78 150 3.0 9.0 0.00 0.00 0.00 88 1008.0
20260506021525 78 186 4.0 10.0 0.00 0.00 0.00 88 1008.0
20260506021016 78 173 4.0 11.0 0.00 0.00 0.00 88 1007.9
20260506020511 78 171 5.0 11.0 0.00 0.00 0.00 87 1007.9
20260506020014 78 178 2.0 7.0 0.00 0.00 0.00 87 1007.9
20260506015504 78 184 3.0 10.0 0.00 0.00 0.00 87 1007.8
20260506015006 78 309 4.0 10.0 0.00 0.00 0.00 87 1007.7
20260506014519 78 178 4.0 9.0 0.00 0.00 0.00 87 1007.6
20260506014007 79 202 4.0 11.0 0.00 0.00 0.00 87 1007.6
20260506013510 79 187 4.0 12.0 0.00 0.00 0.00 87 1007.6
20260506013026 79 171 7.0 12.0 0.00 0.00 0.00 86 1007.5
20260506012511 79 169 4.0 11.0 0.00 0.00 0.00 86 1007.3
20260506012008 79 175 4.0 11.0 0.00 0.00 0.00 86 1007.2
20260506011517 79 195 4.0 10.0 0.00 0.00 0.00 86 1007.1
20260506011009 79 163 4.0 10.0 0.00 0.00 0.00 86 1007.0
20260506010518 79 202 5.0 9.0 0.00 0.00 0.00 85 1007.0
20260506010045 79 67 4.0 10.0 0.00 0.00 0.00 85 1007.0
20260506005509 79 207 4.0 10.0 0.00 0.00 0.00 85 1007.0
20260506005010 79 178 3.0 11.0 0.00 0.00 0.00 85 1007.0
20260506004527 80 221 4.0 11.0 0.00 0.00 0.00 84 1007.0
20260506004006 80 190 4.0 16.0 0.00 0.00 0.00 84 1006.9
20260506003510 80 153 6.0 16.0 0.00 0.00 0.00 84 1006.9
20260506003017 80 207 5.0 15.0 0.00 0.00 0.00 84 1006.7
20260506002508 80 34 6.0 15.0 0.00 0.00 0.00 84 1006.7
20260506002010 80 175 8.0 14.0 0.00 0.00 0.00 84 1006.7
20260506001524 80 155 6.0 14.0 0.00 0.00 0.00 84 1006.7
20260506001009 80 175 5.0 14.0 0.00 0.00 0.00 83 1006.8
20260506000512 81 175 5.0 13.0 0.00 0.00 0.00 83 1006.8
20260506000014 81 188 6.0 13.0 0.00 0.00 0.00 84 1006.8
20260505235504 81 166 6.0 13.0 0.00 0.00 0.00 83 1006.8
20260505235011 81 185 6.0 13.0 0.00 0.00 0.00 83 1006.6
20260505234519 81 152 5.0 13.0 0.00 0.00 0.00 83 1006.6
20260505234009 81 315 6.0 17.0 0.00 0.00 0.00 83 1006.6
20260505233510 81 207 7.0 17.0 0.00 0.00 0.00 83 1006.5
20260505233028 82 175 4.0 13.0 0.00 0.00 0.00 83 1006.6
20260505232517 81 190 5.0 15.0 0.00 0.00 0.00 83 1006.7
20260505232009 82 178 7.0 17.0 0.00 0.00 0.00 82 1006.7
20260505231529 82 218 7.0 17.0 0.00 0.00 0.00 82 1006.6
20260505231007 82 196 7.0 16.0 0.00 0.00 0.00 82 1006.6
20260505230507 82 195 6.0 13.0 0.00 0.00 0.00 82 1006.7
20260505230038 83 9 3.0 15.0 0.00 0.00 0.00 83 1006.6
20260505225511 83 182 6.0 16.0 0.00 0.00 0.00 83 1006.6
20260505225010 82 194 7.0 16.0 0.00 0.00 0.00 82 1006.6
20260505224533 83 93 4.0 17.0 0.00 0.00 0.00 82 1006.6
20260505224005 83 200 6.0 17.0 0.00 0.00 0.00 82 1006.7
20260505223507 83 265 8.0 16.0 0.00 0.00 0.00 81 1006.7
20260505223017 84 178 4.0 15.0 0.00 0.00 0.00 81 1006.7
20260505222510 84 175 6.0 15.0 0.00 0.00 0.00 81 1006.8
20260505222008 84 170 5.0 14.0 0.00 0.00 0.00 81 1006.7
20260505221526 84 197 4.0 14.0 0.00 0.00 0.00 81 1006.8
20260505221010 84 175 6.0 11.0 0.00 0.00 0.00 80 1006.8
20260505220509 84 234 4.0 15.0 0.00 0.00 0.00 80 1006.8
20260505220013 84 183 7.0 15.0 0.00 0.00 0.00 79 1006.9
20260505215508 84 178 5.0 13.0 0.00 0.00 0.00 80 1007.0
20260505215007 84 194 6.0 15.0 0.00 0.00 0.00 80 1007.1
20260505214521 84 185 5.0 15.0 0.00 0.00 0.00 80 1007.0
20260505214008 84 167 6.0 15.0 0.00 0.00 0.00 79 1007.1
20260505213508 84 189 7.0 15.0 0.00 0.00 0.00 79 1007.2
20260505213029 84 178 6.0 17.0 0.00 0.00 0.00 80 1007.2
20260505212513 84 137 4.0 19.0 0.00 0.00 0.00 79 1007.3
20260505212006 85 196 6.0 19.0 0.00 0.00 0.00 79 1007.2
20260505211520 84 187 6.0 15.0 0.00 0.00 0.00 79 1007.3
20260505211007 84 227 7.0 15.0 0.00 0.00 0.00 79 1007.3
20260505210508 84 184 5.0 15.0 0.00 0.00 0.00 80 1007.5
20260505210026 84 194 4.0 15.0 0.00 0.00 0.00 80 1007.6
20260505205513 84 164 4.0 14.0 0.00 0.00 0.00 80 1007.7
20260505205011 84 146 6.0 13.0 0.00 0.00 0.00 80 1007.7
20260505204527 84 169 7.0 14.0 0.00 0.00 0.00 80 1007.9
20260505204012 84 183 5.0 18.0 0.00 0.00 0.00 80 1008.0
20260505203510 84 171 8.0 18.0 0.00 0.00 0.00 79 1008.0
20260505203028 85 159 6.0 11.0 0.00 0.00 0.00 80 1008.0
20260505202510 85 229 6.0 16.0 0.00 0.00 0.00 79 1008.0
20260505202010 85 157 6.0 16.0 0.00 0.00 0.00 79 1008.2
20260505201526 85 93 4.0 13.0 0.00 0.00 0.00 80 1008.2
20260505201011 85 186 4.0 13.0 0.00 0.00 0.00 81 1008.3
20260505200511 84 153 4.0 13.0 0.00 0.00 0.00 81 1008.4
20260505200012 84 169 6.0 15.0 0.00 0.00 0.00 80 1008.4
20260505195507 84 178 3.0 15.0 0.00 0.00 0.00 80 1008.4
20260505195009 84 197 6.0 14.0 0.00 0.00 0.00 81 1008.5
20260505194522 84 157 6.0 14.0 0.00 0.00 0.00 81 1008.6
20260505194012 83 171 3.0 12.0 0.00 0.00 0.00 81 1008.7
20260505193510 84 81 5.0 15.0 0.00 0.00 0.00 82 1008.7
20260505193028 83 197 6.0 15.0 0.00 0.00 0.00 82 1008.7
20260505192511 83 163 4.0 10.0 0.00 0.00 0.00 83 1008.7
20260505192009 83 178 4.0 12.0 0.00 0.00 0.00 83 1008.7
20260505191515 82 178 4.0 12.0 0.00 0.00 0.00 82 1008.8
20260505191009 83 190 4.0 12.0 0.00 0.00 0.00 82 1008.9
20260505190514 83 175 2.0 13.0 0.00 0.00 0.00 83 1008.9
20260505190033 82 9 6.0 15.0 0.00 0.00 0.00 82 1008.8
20260505185511 83 192 5.0 17.0 0.00 0.00 0.00 82 1008.9
20260505185011 83 187 5.0 17.0 0.00 0.00 0.00 82 1008.8
20260505184528 83 185 4.0 10.0 0.00 0.00 0.00 83 1008.9
20260505184007 82 265 4.0 15.0 0.00 0.00 0.00 82 1008.9
20260505183508 82 195 4.0 15.0 0.00 0.00 0.00 82 1008.9
20260505183019 82 238 4.0 12.0 0.00 0.00 0.00 83 1009.1
20260505182511 82 184 4.0 11.0 0.00 0.00 0.00 83 1009.1
20260505182016 81 192 4.0 10.0 0.00 0.00 0.00 84 1009.2
20260505181532 81 216 2.0 12.0 0.00 0.00 0.00 83 1009.3
20260505181009 81 199 4.0 12.0 0.00 0.00 0.00 84 1009.3
20260505180509 81 157 3.0 12.0 0.00 0.00 0.00 85 1009.3
20260505180016 81 209 3.0 10.0 0.00 0.00 0.00 84 1009.4
20260505175512 81 165 3.0 10.0 0.00 0.00 0.00 84 1009.4
20260505175016 81 216 4.0 11.0 0.00 0.00 0.00 84 1009.3
20260505174525 81 189 5.0 11.0 0.00 0.00 0.00 84 1009.4
20260505174012 81 243 4.0 9.0 0.00 0.00 0.00 85 1009.5
20260505173509 80 205 3.0 8.0 0.00 0.00 0.00 85 1009.5
20260505173011 80 169 4.0 11.0 0.00 0.00 0.00 84 1009.6
20260505172506 80 188 3.0 11.0 0.00 0.00 0.00 84 1009.5
20260505172007 80 227 4.0 12.0 0.00 0.00 0.00 84 1009.5
20260505171527 80 241 6.0 12.0 0.00 0.00 0.00 84 1009.5
20260505171009 80 173 4.0 12.0 0.00 0.00 0.00 85 1009.5
20260505170511 80 214 5.0 14.0 0.00 0.00 0.00 85 1009.5
20260505170026 80 161 5.0 14.0 0.00 0.00 0.00 85 1009.7
20260505165511 80 275 5.0 12.0 0.00 0.00 0.00 85 1009.6
20260505165004 80 178 4.0 12.0 0.00 0.00 0.00 85 1009.6
20260505164510 80 193 6.0 12.0 0.00 0.00 0.00 86 1009.5
20260505164008 80 225 4.0 11.0 0.00 0.00 0.00 86 1009.6
20260505163509 79 153 3.0 11.0 0.00 0.00 0.00 87 1009.5
20260505163020 79 207 3.0 9.0 0.00 0.00 0.00 88 1009.6
20260505162507 78 190 3.0 7.0 0.00 0.00 0.00 88 1009.5
20260505162011 78 146 4.0 10.0 0.00 0.00 0.00 88 1009.6
20260505161528 78 196 4.0 10.0 0.00 0.00 0.00 87 1009.7
20260505161003 78 189 3.0 12.0 0.00 0.00 0.00 86 1009.4
20260505160515 79 9 5.0 13.0 0.00 0.00 0.00 87 1009.5
20260505153008 78 202 4.0 10.0 0.00 0.00 0.00 88 1009.2
20260505152509 78 177 4.0 10.0 0.00 0.00 0.00 88 1009.3
20260505152013 77 209 4.0 11.0 0.00 0.00 0.00 89 1009.3
20260505151529 77 213 4.0 11.0 0.00 0.00 0.00 88 1009.3
20260505151011 77 271 2.0 11.0 0.00 0.00 0.00 89 1009.4
20260505150513 76 177 5.0 11.0 0.00 0.00 0.00 89 1009.4
20260505140506 75 164 6.0 13.0 0.00 0.00 0.00 91 1008.8
20260505125011 72 164 4.0 8.0 0.00 0.00 0.00 94 1009.1
20260505124520 71 183 3.0 6.0 0.00 0.00 0.00 94 1009.0
20260505124009 71 178 2.0 6.0 0.00 0.00 0.00 94 1009.0
20260505123506 71 334 1.0 6.0 0.00 0.00 0.00 94 1009.0
20260505123027 71 161 2.0 7.0 0.00 0.00 0.00 93 1009.0
20260505122510 70 178 2.0 7.0 0.00 0.00 0.00 93 1008.8
20260505122007 70 157 2.0 5.0 0.00 0.00 0.00 93 1008.8
20260505121533 70 224 2.0 7.0 0.00 0.00 0.00 93 1008.8
20260505121005 70 186 2.0 7.0 0.00 0.00 0.00 93 1008.7
20260505120511 70 196 1.0 7.0 0.00 0.00 0.00 93 1008.6
20260505120048 70 190 1.0 7.0 0.00 0.00 0.00 93 1008.6
20260505115511 70 169 2.0 8.0 0.00 0.00 0.00 93 1008.5
20260505115015 70 173 3.0 8.0 0.00 0.00 0.00 93 1008.2
20260505114526 70 190 3.0 8.0 0.00 0.00 0.00 93 1008.3
20260505114012 70 186 2.0 5.0 0.00 0.00 0.00 93 1008.6
20260505113510 70 188 1.0 6.0 0.00 0.00 0.00 93 1008.7
20260505113013 70 165 2.0 6.0 0.00 0.00 0.00 93 1008.7
20260505112508 70 190 1.0 6.0 0.00 0.00 0.00 93 1008.6
20260505112006 70 168 3.0 6.0 0.00 0.00 0.00 93 1008.6
20260505111526 70 178 3.0 8.0 0.00 0.00 0.00 93 1008.4
20260505111010 70 169 3.0 8.0 0.00 0.00 0.00 93 1008.4
20260505110509 70 192 3.0 8.0 0.00 0.00 0.00 92 1008.3
20260505102015 70 205 3.0 9.0 0.00 0.00 0.00 92 1008.6
20260505101529 70 143 3.0 9.0 0.00 0.00 0.00 92 1008.5
20260505101013 70 178 3.0 9.0 0.00 0.00 0.00 92 1008.5
20260505100508 70 193 4.0 9.0 0.00 0.00 0.00 92 1008.6
20260505100026 70 168 3.0 7.0 0.00 0.00 0.00 92 1008.7
20260505095509 70 200 3.0 7.0 0.00 0.00 0.00 92 1008.7
20260505095013 70 93 3.0 9.0 0.00 0.00 0.00 92 1008.7
20260505094528 70 161 2.0 9.0 0.00 0.00 0.00 92 1008.7
20260505094011 70 160 4.0 7.0 0.00 0.00 0.00 92 1008.5
20260505093511 70 200 2.0 7.0 0.00 0.00 0.00 92 1008.5
20260505093030 70 173 3.0 7.0 0.00 0.00 0.00 92 1008.6
20260505092507 70 168 3.0 7.0 0.00 0.00 0.00 91 1008.7
20260505092012 70 207 1.0 8.0 0.00 0.00 0.00 91 1008.7
20260505091527 70 178 1.0 8.0 0.00 0.00 0.00 91 1008.7
20260505091012 70 173 2.0 7.0 0.00 0.00 0.00 91 1008.9
20260505090508 70 178 2.0 7.0 0.00 0.00 0.00 91 1008.9
20260505090026 70 198 2.0 7.0 0.00 0.00 0.00 91 1008.9
20260505085510 70 178 2.0 8.0 0.00 0.00 0.00 91 1008.8
20260505085006 70 171 3.0 8.0 0.00 0.00 0.00 91 1008.8
20260505084524 70 211 3.0 7.0 0.00 0.00 0.00 91 1008.9
20260505084013 70 153 2.0 6.0 0.00 0.00 0.00 91 1008.9
20260505083514 70 178 3.0 6.0 0.00 0.00 0.00 91 1009.0
20260505083026 70 205 2.0 6.0 0.00 0.00 0.00 91 1009.1
20260505082509 70 171 2.0 6.0 0.00 0.00 0.00 91 1009.2
20260505082004 70 221 2.0 5.0 0.00 0.00 0.00 91 1009.1
20260505081514 70 190 1.0 6.0 0.00 0.00 0.00 91 1009.1
20260505081006 70 205 2.0 10.0 0.00 0.00 0.00 91 1009.2
20260505080508 70 193 4.0 10.0 0.00 0.00 0.00 90 1009.3